SHIKONGXING 01

Satellite information

Favourite Embed

Satellite Type and Status

PAYLOADIN ORBIT

Key statistics

Satellite SHIKONGXING 01 at a glance.

Uptime

26

Days in orbit

Revolutions

≈ 15.3

Per day

Orbit

LEO

Low Earth Orbit

Inclination

50.3

Latest

Satellite identification and parameters

Extended collection of information and parameters for SHIKONGXING 01.

Object identification

Identified? True

Debris? False

Object name: SHIKONGXING 01

International designator: 2025-214A

Object number (NORAD): 65712

Object ID (CCSDS): 65712

Country: PEOPLES REPUBLIC OF CHINA (PRC)

Current information (Y/N): Y

Orbital parameters

Period: 94.229 minutes

Inclination: 50.2785 deg

SMA: 6859.334 km

Apoapsis: 611.462 km

Periapsis: 350.935 km

RAAN: 19.9438 deg

Eccentricy: 0.01899063

Argument of periapsis: 282.4465 deg

Mean anomaly: 75.5305 deg

Mean motion: 15.28198897 rev/day

Mean motion (dot): 0.00059666 rev/day2

B* drag term: 0.001233783 1/REarth

Two-line elements (TLE)

Creation date: Oct. 12, 2025, 3:37 a.m.

Reference frame: TEME

Reference center: EARTH

Epoch: Oct. 11, 2025, 5:38 p.m. UTC

TLE line 0: 0 SHIKONGXING 01

TLE line 1: 1 65712U 25214A 25284.73474475 .00059666 00000-0 12338-2 0 9998

TLE line 2: 2 65712 50.2785 19.9438 0189906 282.4465 75.5305 15.28198897 2609

Live tracking on map

Real-time ground track for satellite SHIKONGXING 01.

In-orbit conjunctions

There are no conjunctions computed for SHIKONGXING 01, at the moment. Check back to stay up to date, as we update our databases every day.

Go to all conjunctions

Associated space launch

12 LEO communications satellites for Chinese car manufacturer Geely Automotive for testing autonomous driving/inter-vehicle communication services. They also carry payloads for ocean observation.

SHIKONGXING 01 was lifted into orbit during the mission ‘Smart Dragon 3 | Geely Constellation Group 06’, on board a Smart Dragon 3 space rocket.

The launch took place on Sept. 24, 2025, 7:56 a.m. from Oriental Spaceport mobile launch ship.

For more information about the launch, click the button.

Launch to space Smart Dragon 3 | Geely Constellation Group 06
Smart Dragon 3 | Geely Constellation Group 06

Agency: N/A

Status: Launch Successful

Launch date: Sept. 24, 2025, 7:56 a.m. UTC

Rocket: Smart Dragon 3

Launch pad: Oriental Spaceport mobile launch ship

Location: Sea Launch

...

Latest news about this satellite

News about space launch
China boosts broadband, IoT and weather satellite fleets with flurry of launches

A flurry of launch activity has seen China add to an Internet of Things constellation, loft new broadband satellites and boost its weather satellite fleet. The post China boosts broadband, IoT and weather satellite fleets with flurry of launches appeared...

News about space launch
Launch Roundup: Kuiper, Starlink, IMAP headline launch manifest

A busy slate of launches is planned for the last full week of September, including… The post Launch Roundup: Kuiper, Starlink, IMAP headline launch manifest appeared first on NASASpaceFlight.com.


Newsletter sign-up

Weekly statistics, charts and insights to help you stay on top of the space industry.